Time,TemperatureF,DewpointF,PressureIn,WindDirection,WindDirectionDegrees,WindSpeedMPH,WindSpeedGustMPH,Humidity,HourlyPrecipIn,Conditions,Clouds,dailyrainin,SoftwareType,DateUTC
2013-02-11 00:08:00,41.1,40.6,29.52,SSE,151,11.0,13.0,98,0.00,,,0.00,Wunderground v.1.15,2013-02-11 05:08:00,
2013-02-11 00:18:00,41.3,40.8,29.52,SSE,152,13.0,18.0,98,0.00,,,0.00,Wunderground v.1.15,2013-02-11 05:18:00,
2013-02-11 00:28:00,40.9,40.1,29.51,SSE,162,13.0,13.0,97,0.00,,,0.00,Wunderground v.1.15,2013-02-11 05:28:00,
2013-02-11 00:38:00,41.3,40.8,29.51,South,190,9.0,9.0,98,0.00,,,0.00,Wunderground v.1.15,2013-02-11 05:38:00,
2013-02-11 00:48:00,41.2,40.7,29.51,South,186,9.0,12.0,98,0.00,,,0.00,Wunderground v.1.15,2013-02-11 05:48:00,
2013-02-11 00:58:00,42.8,42.3,29.50,SSW,205,10.0,10.0,98,0.00,,,0.00,Wunderground v.1.15,2013-02-11 05:58:00,
2013-02-11 01:08:00,43.3,42.8,29.50,SSW,194,9.0,14.0,98,0.00,,,0.00,Wunderground v.1.15,2013-02-11 06:08:00,
2013-02-11 01:18:00,43.6,42.8,29.50,SSW,194,11.0,11.0,97,0.00,,,0.00,Wunderground v.1.15,2013-02-11 06:18:00,
2013-02-11 01:28:00,43.8,42.7,29.50,South,191,10.0,11.0,96,0.00,,,0.00,Wunderground v.1.15,2013-02-11 06:28:00,
2013-02-11 01:38:00,43.8,42.5,29.50,SW,216,8.0,8.0,95,0.00,,,0.00,Wunderground v.1.15,2013-02-11 06:38:00,
2013-02-11 01:48:00,43.8,42.5,29.49,SW,215,7.0,7.0,95,0.00,,,0.00,Wunderground v.1.15,2013-02-11 06:48:00,
2013-02-11 01:58:00,44.1,42.8,29.49,WSW,246,8.0,8.0,95,0.00,,,0.00,Wunderground v.1.15,2013-02-11 06:58:00,
2013-02-11 02:08:00,44.3,42.7,29.49,WSW,241,10.0,12.0,94,0.00,,,0.00,Wunderground v.1.15,2013-02-11 07:08:00,
2013-02-11 02:18:00,44.5,42.6,29.49,SW,224,11.0,12.0,93,0.00,,,0.00,Wunderground v.1.15,2013-02-11 07:18:00,
2013-02-11 02:28:00,44.6,41.8,29.48,SW,228,12.0,12.0,90,0.00,,,0.00,Wunderground v.1.15,2013-02-11 07:28:00,
2013-02-11 02:38:00,44.2,40.3,29.48,SW,234,10.0,17.0,86,0.00,,,0.00,Wunderground v.1.15,2013-02-11 07:38:00,
2013-02-11 02:48:00,43.8,37.7,29.48,SW,226,13.0,13.0,79,0.00,,,0.00,Wunderground v.1.15,2013-02-11 07:48:00,
2013-02-11 02:58:00,42.8,36.1,29.48,WSW,239,11.0,11.0,77,0.00,,,0.00,Wunderground v.1.15,2013-02-11 07:58:00,
2013-02-11 03:08:00,42.5,35.8,29.48,SW,221,11.0,11.0,77,0.00,,,0.00,Wunderground v.1.15,2013-02-11 08:08:00,
2013-02-11 03:18:00,42.3,35.9,29.48,SW,218,11.0,11.0,78,0.00,,,0.00,Wunderground v.1.15,2013-02-11 08:18:00,
2013-02-11 03:28:00,42.3,35.9,29.48,SW,227,11.0,11.0,78,0.00,,,0.00,Wunderground v.1.15,2013-02-11 08:28:00,
2013-02-11 03:38:00,41.8,35.4,29.48,SW,225,12.0,13.0,78,0.00,,,0.00,Wunderground v.1.15,2013-02-11 08:38:00,
2013-02-11 03:48:00,41.3,35.9,29.48,SW,227,10.0,11.0,81,0.00,,,0.00,Wunderground v.1.15,2013-02-11 08:48:00,
2013-02-11 03:58:00,41.5,36.7,29.48,SW,219,10.0,15.0,83,0.00,,,0.00,Wunderground v.1.15,2013-02-11 08:58:00,
2013-02-11 04:08:00,41.6,34.3,29.48,SW,236,15.0,15.0,75,0.00,,,0.00,Wunderground v.1.15,2013-02-11 09:08:00,
2013-02-11 04:18:00,40.8,33.8,29.48,WSW,242,15.0,16.0,76,0.00,,,0.00,Wunderground v.1.15,2013-02-11 09:18:00,
2013-02-11 04:28:00,40.3,33.7,29.48,SW,232,13.0,18.0,77,0.00,,,0.00,Wunderground v.1.15,2013-02-11 09:28:00,
2013-02-11 04:38:00,39.9,33.6,29.48,SW,232,13.0,13.0,78,0.00,,,0.00,Wunderground v.1.15,2013-02-11 09:38:00,
2013-02-11 04:48:00,39.8,33.5,29.48,SW,225,12.0,12.0,78,0.00,,,0.00,Wunderground v.1.15,2013-02-11 09:48:00,
2013-02-11 04:58:00,39.8,33.5,29.48,WSW,237,13.0,14.0,78,0.00,,,0.00,Wunderground v.1.15,2013-02-11 09:58:00,
2013-02-11 05:08:00,39.5,33.2,29.48,SW,215,15.0,15.0,78,0.00,,,0.00,Wunderground v.1.15,2013-02-11 10:08:00,
2013-02-11 05:18:00,39.2,32.9,29.48,SW,234,15.0,22.0,78,0.00,,,0.00,Wunderground v.1.15,2013-02-11 10:18:00,
2013-02-11 05:28:00,38.8,32.5,29.48,SW,236,16.0,20.0,78,0.00,,,0.00,Wunderground v.1.15,2013-02-11 10:28:00,
2013-02-11 05:38:00,38.5,32.2,29.48,WSW,240,16.0,21.0,78,0.00,,,0.00,Wunderground v.1.15,2013-02-11 10:38:00,
2013-02-11 05:48:00,37.5,32.5,29.49,SW,236,21.0,21.0,82,0.00,,,0.00,Wunderground v.1.15,2013-02-11 10:48:00,
2013-02-11 05:58:00,36.6,32.5,29.50,WSW,244,19.0,22.0,85,0.00,,,0.00,Wunderground v.1.15,2013-02-11 10:58:00,
2013-02-11 06:08:00,36.2,32.4,29.50,WSW,242,17.0,19.0,86,0.00,,,0.00,Wunderground v.1.15,2013-02-11 11:08:00,
2013-02-11 06:18:00,36.2,32.4,29.50,SW,232,16.0,16.0,86,0.00,,,0.00,Wunderground v.1.15,2013-02-11 11:18:00,
2013-02-11 06:28:00,36.5,32.1,29.50,WSW,244,16.0,16.0,84,0.00,,,0.00,Wunderground v.1.15,2013-02-11 11:28:00,
2013-02-11 06:38:00,36.3,31.3,29.50,WSW,245,15.0,22.0,82,0.00,,,0.00,Wunderground v.1.15,2013-02-11 11:38:00,
2013-02-11 06:48:00,36.5,30.3,29.50,WSW,240,19.0,21.0,78,0.00,,,0.00,Wunderground v.1.15,2013-02-11 11:48:00,
2013-02-11 06:58:00,36.3,29.8,29.50,SW,236,20.0,20.0,77,0.00,,,0.00,Wunderground v.1.15,2013-02-11 11:58:00,
2013-02-11 07:08:00,36.0,29.2,29.50,SW,234,22.0,30.0,76,0.00,,,0.00,Wunderground v.1.15,2013-02-11 12:08:00,
2013-02-11 07:18:00,35.9,29.1,29.51,WSW,244,22.0,22.0,76,0.00,,,0.00,Wunderground v.1.15,2013-02-11 12:18:00,
2013-02-11 07:28:00,35.6,28.5,29.51,WSW,244,21.0,35.0,75,0.00,,,0.00,Wunderground v.1.15,2013-02-11 12:28:00,
2013-02-11 07:38:00,35.6,28.5,29.51,WSW,247,23.0,23.0,75,0.00,,,0.00,Wunderground v.1.15,2013-02-11 12:38:00,
2013-02-11 07:48:00,35.5,28.7,29.52,WSW,246,21.0,31.0,76,0.00,,,0.00,Wunderground v.1.15,2013-02-11 12:48:00,
2013-02-11 07:58:00,35.3,28.8,29.52,SW,232,22.0,22.0,77,0.00,,,0.00,Wunderground v.1.15,2013-02-11 12:58:00,
2013-02-11 08:08:00,34.9,28.7,29.52,SSW,212,20.0,20.0,78,0.00,,,0.00,Wunderground v.1.15,2013-02-11 13:08:00,
2013-02-11 08:18:00,34.7,28.5,29.52,SW,230,21.0,21.0,78,0.00,,,0.00,Wunderground v.1.15,2013-02-11 13:18:00,
2013-02-11 08:28:00,34.6,28.4,29.53,WSW,240,20.0,24.0,78,0.00,,,0.00,Wunderground v.1.15,2013-02-11 13:28:00,
2013-02-11 08:38:00,34.4,27.9,29.53,SW,227,22.0,22.0,77,0.00,,,0.00,Wunderground v.1.15,2013-02-11 13:38:00,
2013-02-11 08:48:00,34.4,27.3,29.52,WSW,245,22.0,22.0,75,0.00,,,0.00,Wunderground v.1.15,2013-02-11 13:48:00,
2013-02-11 08:58:00,34.1,27.6,29.53,WSW,247,20.0,20.0,77,0.00,,,0.00,Wunderground v.1.15,2013-02-11 13:58:00,
2013-02-11 09:08:00,33.8,27.7,29.53,WSW,244,18.0,18.0,78,0.00,,,0.00,Wunderground v.1.15,2013-02-11 14:08:00,
2013-02-11 09:18:00,33.8,27.7,29.52,SW,223,19.0,20.0,78,0.00,,,0.00,Wunderground v.1.15,2013-02-11 14:18:00,
2013-02-11 09:28:00,33.8,27.7,29.53,WSW,245,19.0,19.0,78,0.00,,,0.00,Wunderground v.1.15,2013-02-11 14:28:00,
2013-02-11 09:38:00,33.7,27.9,29.53,WSW,243,21.0,21.0,79,0.00,,,0.00,Wunderground v.1.15,2013-02-11 14:38:00,
2013-02-11 09:48:00,33.4,28.5,29.53,WSW,245,18.0,18.0,82,0.00,,,0.00,Wunderground v.1.15,2013-02-11 14:48:00,
2013-02-11 09:58:00,32.9,28.6,29.53,SW,224,18.0,18.0,84,0.00,,,0.00,Wunderground v.1.15,2013-02-11 14:58:00,
2013-02-11 10:08:00,32.5,29.1,29.53,WSW,239,20.0,20.0,87,0.00,,,0.00,Wunderground v.1.15,2013-02-11 15:08:00,
2013-02-11 10:18:00,32.1,30.0,29.54,SW,235,18.0,20.0,92,0.00,,,0.00,Wunderground v.1.15,2013-02-11 15:18:00,
2013-02-11 10:28:00,31.9,30.1,29.54,WSW,244,18.0,18.0,93,0.00,,,0.00,Wunderground v.1.15,2013-02-11 15:28:00,
2013-02-11 10:38:00,31.8,30.3,29.54,WSW,238,18.0,24.0,94,0.00,,,0.00,Wunderground v.1.15,2013-02-11 15:38:00,
2013-02-11 10:48:00,31.8,30.5,29.55,SW,230,18.0,18.0,95,0.00,,,0.00,Wunderground v.1.15,2013-02-11 15:48:00,
2013-02-11 10:58:00,31.8,30.8,29.56,WSW,249,17.0,22.0,96,0.00,,,0.00,Wunderground v.1.15,2013-02-11 15:58:00,
2013-02-11 11:08:00,31.6,31.1,29.56,WSW,241,18.0,18.0,98,0.00,,,0.00,Wunderground v.1.15,2013-02-11 16:08:00,
2013-02-11 11:18:00,31.6,31.1,29.56,WSW,247,19.0,19.0,98,0.00,,,0.00,Wunderground v.1.15,2013-02-11 16:18:00,
2013-02-11 11:28:00,31.6,31.4,29.56,WSW,244,18.0,18.0,99,0.00,,,0.00,Wunderground v.1.15,2013-02-11 16:28:00,
2013-02-11 11:38:00,31.6,31.4,29.56,SW,235,18.0,18.0,99,0.00,,,0.00,Wunderground v.1.15,2013-02-11 16:38:00,
2013-02-11 11:48:00,31.6,31.4,29.57,WSW,246,17.0,17.0,99,0.00,,,0.00,Wunderground v.1.15,2013-02-11 16:48:00,
2013-02-11 11:58:00,31.8,31.6,29.57,WSW,248,15.0,15.0,99,0.00,,,0.00,Wunderground v.1.15,2013-02-11 16:58:00,
2013-02-11 12:08:00,31.8,31.8,29.57,WSW,241,14.0,14.0,100,0.00,,,0.00,Wunderground v.1.15,2013-02-11 17:08:00,
2013-02-11 12:18:00,31.6,31.6,29.58,WSW,247,13.0,14.0,100,0.00,,,0.00,Wunderground v.1.15,2013-02-11 17:18:00,
2013-02-11 12:28:00,31.6,31.6,29.58,WSW,243,13.0,16.0,100,0.00,,,0.00,Wunderground v.1.15,2013-02-11 17:28:00,
2013-02-11 12:38:00,31.5,31.5,29.58,West,260,11.0,14.0,100,0.00,,,0.01,Wunderground v.1.15,2013-02-11 17:38:00,
2013-02-11 12:48:00,31.3,31.3,29.59,SW,215,11.0,11.0,100,0.00,,,0.01,Wunderground v.1.15,2013-02-11 17:48:00,
2013-02-11 12:58:00,31.2,31.2,29.59,WSW,245,11.0,11.0,100,0.00,,,0.01,Wunderground v.1.15,2013-02-11 17:58:00,
2013-02-11 13:08:00,31.3,31.3,29.59,WSW,248,11.0,11.0,100,0.00,,,0.01,Wunderground v.1.15,2013-02-11 18:08:00,
2013-02-11 13:18:00,31.5,31.5,29.59,WSW,242,11.0,11.0,100,0.00,,,0.01,Wunderground v.1.15,2013-02-11 18:18:00,
2013-02-11 13:28:00,31.5,31.5,29.60,SW,221,11.0,11.0,100,0.00,,,0.01,Wunderground v.1.15,2013-02-11 18:28:00,
2013-02-11 13:38:00,31.6,31.6,29.60,WSW,252,12.0,12.0,100,0.00,,,0.01,Wunderground v.1.15,2013-02-11 18:38:00,
2013-02-11 13:48:00,31.8,31.8,29.60,WSW,257,10.0,10.0,100,0.00,,,0.01,Wunderground v.1.15,2013-02-11 18:48:00,
2013-02-11 13:58:00,31.9,31.9,29.61,WSW,250,11.0,14.0,100,0.00,,,0.01,Wunderground v.1.15,2013-02-11 18:58:00,
2013-02-11 14:08:00,32.1,32.1,29.61,WSW,246,10.0,11.0,100,0.00,,,0.01,Wunderground v.1.15,2013-02-11 19:08:00,
2013-02-11 14:18:00,32.2,32.2,29.62,WSW,247,10.0,10.0,100,0.00,,,0.01,Wunderground v.1.15,2013-02-11 19:18:00,
2013-02-11 14:28:00,32.2,32.2,29.63,WSW,248,11.0,11.0,100,0.00,,,0.01,Wunderground v.1.15,2013-02-11 19:28:00,
2013-02-11 14:38:00,32.2,32.2,29.63,WSW,248,11.0,11.0,100,0.00,,,0.01,Wunderground v.1.15,2013-02-11 19:38:00,
2013-02-11 14:48:00,32.2,32.2,29.63,WSW,249,11.0,15.0,100,0.00,,,0.01,Wunderground v.1.15,2013-02-11 19:48:00,
2013-02-11 14:58:00,32.2,32.2,29.64,WSW,256,11.0,11.0,100,0.00,,,0.01,Wunderground v.1.15,2013-02-11 19:58:00,
2013-02-11 15:08:00,32.2,32.2,29.64,WSW,251,14.0,18.0,100,0.00,,,0.01,Wunderground v.1.15,2013-02-11 20:08:00,
2013-02-11 15:18:00,32.4,32.4,29.65,WSW,250,15.0,15.0,100,0.00,,,0.01,Wunderground v.1.15,2013-02-11 20:18:00,
2013-02-11 15:28:00,32.5,32.3,29.65,WSW,256,16.0,16.0,99,0.00,,,0.01,Wunderground v.1.15,2013-02-11 20:28:00,
2013-02-11 15:38:00,32.5,32.0,29.65,WSW,249,16.0,20.0,98,0.00,,,0.01,Wunderground v.1.15,2013-02-11 20:38:00,
2013-02-11 15:48:00,32.5,32.0,29.66,WSW,257,15.0,17.0,98,0.00,,,0.01,Wunderground v.1.15,2013-02-11 20:48:00,
2013-02-11 15:58:00,32.5,31.7,29.67,WSW,255,17.0,18.0,97,0.00,,,0.01,Wunderground v.1.15,2013-02-11 20:58:00,
2013-02-11 16:08:00,32.5,31.7,29.67,WSW,257,16.0,16.0,97,0.00,,,0.01,Wunderground v.1.15,2013-02-11 21:08:00,
2013-02-11 16:18:00,32.4,31.4,29.68,WSW,249,15.0,15.0,96,0.00,,,0.01,Wunderground v.1.15,2013-02-11 21:18:00,
2013-02-11 16:28:00,32.4,31.1,29.68,WSW,254,16.0,16.0,95,0.00,,,0.01,Wunderground v.1.15,2013-02-11 21:28:00,
2013-02-11 16:38:00,32.2,30.9,29.68,West,260,16.0,19.0,95,0.00,,,0.01,Wunderground v.1.15,2013-02-11 21:38:00,
2013-02-11 16:48:00,32.2,30.9,29.69,WSW,242,16.0,16.0,95,0.00,,,0.01,Wunderground v.1.15,2013-02-11 21:48:00,
2013-02-11 16:58:00,31.9,30.6,29.70,West,260,17.0,20.0,95,0.00,,,0.01,Wunderground v.1.15,2013-02-11 21:58:00,
2013-02-11 17:08:00,31.9,30.1,29.70,West,265,17.0,17.0,93,0.00,,,0.01,Wunderground v.1.15,2013-02-11 22:08:00,
2013-02-11 17:18:00,31.9,30.1,29.72,WSW,256,14.0,14.0,93,0.00,,,0.01,Wunderground v.1.15,2013-02-11 22:18:00,
2013-02-11 17:28:00,31.5,29.7,29.73,West,261,16.0,16.0,93,0.00,,,0.01,Wunderground v.1.15,2013-02-11 22:28:00,
2013-02-11 17:38:00,31.5,29.7,29.73,West,271,15.0,15.0,93,0.00,,,0.01,Wunderground v.1.15,2013-02-11 22:38:00,
2013-02-11 17:48:00,31.2,29.7,29.73,WSW,257,14.0,20.0,94,0.00,,,0.01,Wunderground v.1.15,2013-02-11 22:48:00,
2013-02-11 17:58:00,30.9,29.6,29.74,WSW,253,13.0,13.0,95,0.00,,,0.01,Wunderground v.1.15,2013-02-11 22:58:00,
2013-02-11 18:08:00,30.4,29.4,29.74,West,261,13.0,13.0,96,0.00,,,0.01,Wunderground v.1.15,2013-02-11 23:08:00,
2013-02-11 18:18:00,30.1,29.4,29.75,West,259,12.0,12.0,97,0.00,,,0.01,Wunderground v.1.15,2013-02-11 23:18:00,
2013-02-11 18:28:00,30.1,29.6,29.76,West,259,14.0,14.0,98,0.00,,,0.01,Wunderground v.1.15,2013-02-11 23:28:00,
2013-02-11 18:38:00,29.8,29.3,29.76,WSW,257,14.0,16.0,98,0.00,,,0.01,Wunderground v.1.15,2013-02-11 23:38:00,
2013-02-11 18:48:00,30.0,29.5,29.76,West,259,14.0,14.0,98,0.00,,,0.01,Wunderground v.1.15,2013-02-11 23:48:00,
2013-02-11 18:58:00,30.0,29.5,29.78,WSW,250,12.0,13.0,98,0.00,,,0.01,Wunderground v.1.15,2013-02-11 23:58:00,
2013-02-11 19:08:00,30.1,29.6,29.78,WSW,249,14.0,15.0,98,0.00,,,0.01,Wunderground v.1.15,2013-02-12 00:08:00,
2013-02-11 19:18:00,30.3,29.8,29.78,West,263,13.0,13.0,98,0.00,,,0.01,Wunderground v.1.15,2013-02-12 00:18:00,
2013-02-11 19:28:00,30.6,29.9,29.79,WSW,251,11.0,16.0,97,0.00,,,0.01,Wunderground v.1.15,2013-02-12 00:28:00,
2013-02-11 19:38:00,30.7,29.7,29.79,West,267,12.0,12.0,96,0.00,,,0.01,Wunderground v.1.15,2013-02-12 00:38:00,
2013-02-11 19:48:00,30.7,29.4,29.80,WSW,251,12.0,12.0,95,0.00,,,0.01,Wunderground v.1.15,2013-02-12 00:48:00,
2013-02-11 19:58:00,30.9,29.4,29.81,West,281,12.0,12.0,94,0.00,,,0.01,Wunderground v.1.15,2013-02-12 00:58:00,
2013-02-11 20:08:00,30.9,29.1,29.81,West,259,11.0,11.0,93,0.00,,,0.01,Wunderground v.1.15,2013-02-12 01:08:00,
2013-02-11 20:18:00,30.9,28.9,29.81,West,281,10.0,10.0,92,0.00,,,0.01,Wunderground v.1.15,2013-02-12 01:18:00,
2013-02-11 20:28:00,30.7,28.4,29.81,West,281,10.0,11.0,91,0.00,,,0.01,Wunderground v.1.15,2013-02-12 01:28:00,
2013-02-11 20:38:00,30.7,28.1,29.81,West,259,10.0,11.0,90,0.00,,,0.01,Wunderground v.1.15,2013-02-12 01:38:00,
2013-02-11 20:48:00,30.7,28.1,29.81,West,279,11.0,12.0,90,0.00,,,0.01,Wunderground v.1.15,2013-02-12 01:48:00,
2013-02-11 20:58:00,30.7,28.1,29.82,West,268,10.0,12.0,90,0.00,,,0.01,Wunderground v.1.15,2013-02-12 01:58:00,
2013-02-11 21:08:00,30.4,27.3,29.82,West,259,13.0,18.0,88,0.00,,,0.01,Wunderground v.1.15,2013-02-12 02:08:00,
2013-02-11 21:18:00,30.3,26.9,29.83,West,279,13.0,13.0,87,0.00,,,0.01,Wunderground v.1.15,2013-02-12 02:18:00,
2013-02-11 21:28:00,30.3,26.3,29.83,WNW,296,12.0,13.0,85,0.00,,,0.01,Wunderground v.1.15,2013-02-12 02:28:00,
2013-02-11 21:38:00,30.1,25.8,29.83,WNW,286,12.0,12.0,84,0.00,,,0.01,Wunderground v.1.15,2013-02-12 02:38:00,
2013-02-11 21:48:00,30.1,25.6,29.84,West,271,13.0,14.0,83,0.00,,,0.01,Wunderground v.1.15,2013-02-12 02:48:00,
2013-02-11 21:58:00,30.0,25.2,29.85,West,281,11.0,13.0,82,0.00,,,0.01,Wunderground v.1.15,2013-02-12 02:58:00,
2013-02-11 22:08:00,29.7,24.6,29.85,West,279,13.0,16.0,81,0.00,,,0.01,Wunderground v.1.15,2013-02-12 03:08:00,
2013-02-11 22:18:00,29.7,24.3,29.85,WNW,284,13.0,13.0,80,0.00,,,0.01,Wunderground v.1.15,2013-02-12 03:18:00,
2013-02-11 22:28:00,29.5,24.1,29.85,WNW,283,12.0,12.0,80,0.00,,,0.01,Wunderground v.1.15,2013-02-12 03:28:00,
2013-02-11 22:38:00,29.7,24.6,29.85,West,278,11.0,11.0,81,0.00,,,0.01,Wunderground v.1.15,2013-02-12 03:38:00,
2013-02-11 22:48:00,29.7,24.6,29.85,WSW,252,11.0,12.0,81,0.00,,,0.01,Wunderground v.1.15,2013-02-12 03:48:00,
2013-02-11 22:58:00,29.7,24.3,29.86,WNW,287,10.0,11.0,80,0.00,,,0.01,Wunderground v.1.15,2013-02-12 03:58:00,
2013-02-11 23:08:00,29.7,24.3,29.86,West,281,10.0,11.0,80,0.00,,,0.01,Wunderground v.1.15,2013-02-12 04:08:00,
2013-02-11 23:18:00,29.7,24.0,29.86,West,274,13.0,13.0,79,0.00,,,0.01,Wunderground v.1.15,2013-02-12 04:18:00,
2013-02-11 23:28:00,29.7,23.7,29.86,WNW,293,11.0,11.0,78,0.00,,,0.01,Wunderground v.1.15,2013-02-12 04:28:00,
2013-02-11 23:38:00,29.7,23.7,29.86,WNW,291,11.0,11.0,78,0.00,,,0.01,Wunderground v.1.15,2013-02-12 04:38:00,
2013-02-11 23:48:00,29.7,23.7,29.86,WNW,296,11.0,11.0,78,0.00,,,0.01,Wunderground v.1.15,2013-02-12 04:48:00,
2013-02-11 23:58:00,29.5,23.2,29.88,WNW,284,10.0,10.0,77,0.00,,,0.00,Wunderground v.1.15,2013-02-12 04:58:00,